Voltar ao catálogo

JILIN-1 GAOFEN 07B 04 XING

AtivoCiênciaSSO
NORAD 68696·PAYLOAD·🇨🇳 China
Este nome de satélite ainda não foi confirmado por fontes oficiais.

Lançado Apr 14, 2026 de Jiuquan Satellite Launch Center

Loading…

Próximas Passagens (próximas 24 horas)

TLE

AtualizadoSource: Space-Track

Época: Sep 14, 2026, 15:21 UTC

1 68696U 26080F   26257.64018363  .00004417  00000-0  28318-3 0  9995
2 68696  97.6542 333.0492 0015724 125.5870 234.6827 15.08935390 23113

Acompanhe JILIN-1 GAOFEN 07B 04 XING em tempo real com AllMySat

Download on the App Store